TimeEST,TemperatureF,Dew PointF,Humidity,Sea Level PressureIn,VisibilityMPH,Wind Direction,Wind SpeedMPH,Gust SpeedMPH,PrecipitationIn,Events,Conditions,WindDirDegrees,DateUTC
12:56 AM,21.0,17.1,85,30.01,10.0,Calm,Calm,-,N/A,,Clear,0,2012-12-24 05:56:00
1:56 AM,21.0,17.1,85,30.01,10.0,Calm,Calm,-,N/A,,Clear,0,2012-12-24 06:56:00
2:56 AM,19.9,16.0,85,30.02,10.0,Calm,Calm,-,N/A,,Clear,0,2012-12-24 07:56:00
3:56 AM,21.0,17.1,85,29.99,10.0,East,4.6,-,N/A,,Clear,80,2012-12-24 08:56:00
4:56 AM,21.0,17.1,85,29.97,10.0,ENE,4.6,-,N/A,,Clear,60,2012-12-24 09:56:00
5:56 AM,21.9,17.1,82,29.95,10.0,East,5.8,-,N/A,,Partly Cloudy,80,2012-12-24 10:56:00
6:56 AM,24.1,19.0,81,29.95,10.0,East,5.8,-,N/A,,Mostly Cloudy,80,2012-12-24 11:56:00
7:12 AM,24.8,19.4,80,29.91,10.0,East,5.8,-,N/A,,Scattered Clouds,90,2012-12-24 12:12:00
7:21 AM,24.8,19.4,80,29.91,10.0,East,6.9,-,N/A,,Mostly Cloudy,90,2012-12-24 12:21:00
7:56 AM,25.0,19.0,78,29.94,10.0,East,6.9,-,N/A,,Overcast,80,2012-12-24 12:56:00
8:56 AM,25.0,19.9,81,29.94,10.0,ENE,5.8,-,N/A,,Overcast,60,2012-12-24 13:56:00
9:56 AM,26.1,21.0,81,29.95,10.0,Variable,3.5,-,N/A,,Overcast,0,2012-12-24 14:56:00
10:56 AM,27.0,21.0,78,29.92,10.0,Variable,5.8,-,N/A,,Overcast,0,2012-12-24 15:56:00
11:04 AM,28.4,21.2,74,29.89,10.0,East,5.8,-,N/A,,Overcast,100,2012-12-24 16:04:00
11:56 AM,28.9,21.9,75,29.93,10.0,NE,3.5,-,N/A,,Overcast,50,2012-12-24 16:56:00
12:44 PM,30.2,23.0,75,29.83,10.0,ENE,8.1,-,N/A,,Partly Cloudy,60,2012-12-24 17:44:00
12:56 PM,30.0,23.0,75,29.85,10.0,NE,8.1,-,N/A,,Partly Cloudy,50,2012-12-24 17:56:00
1:56 PM,30.9,24.1,76,29.84,10.0,ENE,5.8,-,N/A,,Overcast,70,2012-12-24 18:56:00
2:12 PM,30.2,24.8,80,29.80,2.5,ENE,4.6,-,0.00,Snow,Light Snow,70,2012-12-24 19:12:00
2:20 PM,30.2,24.8,80,29.81,1.5,ENE,3.5,-,0.00,Snow,Light Snow,70,2012-12-24 19:20:00
2:47 PM,30.2,24.8,80,29.80,0.5,ENE,6.9,-,0.00,Snow,Snow,60,2012-12-24 19:47:00
2:56 PM,30.0,26.1,85,29.84,0.8,ENE,5.8,-,0.01,Snow,Light Snow,60,2012-12-24 19:56:00
3:06 PM,30.2,26.6,86,29.79,1.0,NE,6.9,-,0.00,Snow,Light Snow,50,2012-12-24 20:06:00
3:24 PM,28.4,26.6,93,29.80,0.2,NE,4.6,-,0.01,Fog-Snow,Snow,40,2012-12-24 20:24:00
3:29 PM,28.4,26.6,93,29.80,0.2,ENE,4.6,-,0.01,Fog-Snow,Snow,60,2012-12-24 20:29:00
3:56 PM,28.9,26.1,89,29.85,1.0,NNE,5.8,-,0.03,Snow,Light Snow,20,2012-12-24 20:56:00
4:05 PM,28.4,26.6,93,29.81,0.8,NNE,4.6,-,0.00,Snow,Light Snow,20,2012-12-24 21:05:00
4:14 PM,28.4,26.6,93,29.82,0.8,North,5.8,-,0.00,Snow,Light Snow,10,2012-12-24 21:14:00
4:26 PM,28.4,26.6,93,29.82,1.0,North,4.6,-,0.00,Snow,Light Snow,360,2012-12-24 21:26:00
4:56 PM,28.0,25.0,88,29.88,1.0,North,8.1,-,0.01,Snow,Light Snow,350,2012-12-24 21:56:00
5:20 PM,28.4,24.8,86,29.84,2.0,North,6.9,-,0.00,Snow,Light Snow,10,2012-12-24 22:20:00
5:34 PM,26.6,24.8,93,29.84,4.0,North,6.9,-,0.00,Snow,Light Snow,10,2012-12-24 22:34:00
5:44 PM,26.6,24.8,93,29.85,7.0,North,6.9,-,0.00,,Overcast,10,2012-12-24 22:44:00
5:56 PM,27.0,24.1,89,29.90,5.0,North,6.9,-,0.00,,Overcast,360,2012-12-24 22:56:00
6:16 PM,26.6,24.8,93,29.87,6.0,North,4.6,-,0.00,,Overcast,10,2012-12-24 23:16:00
6:26 PM,26.6,24.8,93,29.87,8.0,North,4.6,-,0.00,,Overcast,10,2012-12-24 23:26:00
6:56 PM,27.0,24.1,89,29.93,10.0,NNE,5.8,-,0.00,,Overcast,20,2012-12-24 23:56:00
7:04 PM,28.4,24.8,86,29.89,10.0,North,4.6,-,N/A,,Overcast,360,2012-12-25 00:04:00
7:56 PM,27.0,24.1,89,29.95,10.0,North,4.6,-,N/A,,Overcast,350,2012-12-25 00:56:00
8:07 PM,26.6,24.8,93,29.91,10.0,North,5.8,-,N/A,,Overcast,350,2012-12-25 01:07:00
8:56 PM,27.0,23.0,85,29.97,10.0,North,6.9,-,0.01,,Overcast,350,2012-12-25 01:56:00
9:56 PM,26.1,21.9,84,29.99,10.0,North,8.1,-,N/A,,Overcast,350,2012-12-25 02:56:00
10:13 PM,26.6,21.2,80,29.95,10.0,North,6.9,-,N/A,,Overcast,350,2012-12-25 03:13:00
10:24 PM,26.6,21.2,80,29.96,10.0,North,5.8,-,N/A,,Overcast,360,2012-12-25 03:24:00
10:52 PM,26.6,23.0,86,29.96,10.0,North,8.1,-,N/A,,Overcast,360,2012-12-25 03:52:00
10:56 PM,26.1,23.0,88,30.00,10.0,North,4.6,-,N/A,,Overcast,360,2012-12-25 03:56:00
11:56 PM,26.1,23.0,88,30.03,10.0,North,3.5,-,N/A,,Overcast,350,2012-12-25 04:56:00